Location: Ay?beleni
(36.6500°N, 30.3000°E)
Time: 08:39:16
(UTC+00:00)

Cosmos 1726 Rocket - Pass Details

Date: 09 April 2020
Orbit: 602 x 631 km, 82.5° (Epoch: 31 May)

Event Time Altitude Azimuth Distance (km) Brightness Sun altitude
Rises 17:15:28 0° 179° (S) 2,874 6.8 -10.0°
Reaches altitude 10° 17:17:41 10° 176° (S) 1,977 5.9 -10.4°
Maximum altitude 17:22:02 66° 94° (E) 682 3.5 -11.3°
Drops below altitude 10° 17:26:26 10° 13° (NNE) 2,008 6.3 -12.1°
Sets 17:28:42 0° 11° (N) 2,922 7.1 -12.5°
